Torna al catalogo

STARLINK-5422

AttivoComunicazioniVLEO
NORAD 54804·PAYLOAD·🇺🇸 United States

Lanciato Dec 17, 2022 da Cape Canaveral Space Force Station

Loading…

Prossimi Passaggi (prossime 24 ore)

TLE

AggiornatoSource: CelesTrak SupGP

Epoca: Sep 14, 2026, 20:57 UTC

1 54804C 22175AY  26257.87340278  .00041198  00000+0  12175-2 0  2576
2 54804  53.1576 243.7361 0001264  92.7874 153.9942 15.34362923    18

Traccia STARLINK-5422 in tempo reale con AllMySat

Download on the App Store